Volver al catálogo

STARLINK-11351

ActivoComunicacionesVLEO
NORAD 61886·PAYLOAD·🇺🇸 United States

Lanzado Nov 9, 2024 desde Vandenberg Space Force Base

Loading…

Próximos Pases (próximas 24 horas)

TLE

ActualizadoSource: CelesTrak SupGP

Época: Sep 14, 2026, 20:51 UTC

1 61886C 24204N   26257.86923611 -.00037062  00000+0 -30523-3 0  2571
2 61886  53.1568 143.3902 0001057  83.3199 191.9332 15.69733172    10

Sigue STARLINK-11351 en tiempo real con AllMySat

Download on the App Store